Location: Unspecified
(0.0000°N, 0.0000°E)
Time: 22:36:23
(UTC+00:00)

X-37B - Pass Details

Date: 23 October 2020
Orbit: 382 x 392 km, 45.0° (Epoch: 15 October)

Event Time Altitude Azimuth Distance (km) Brightness Sun altitude
Rises 18:02:56 0° 328° (NNW) 2,250 4.7 -4.6°
Reaches altitude 10° 18:05:04 10° 336° (NNW) 1,398 3.6 -5.1°
Maximum altitude 18:08:03 40° 48° (NE) 578 1.1 -5.8°
Drops below altitude 10° 18:11:02 10° 119° (ESE) 1,398 3.0 -6.6°
Enters shadow 18:13:08 - 127° (SE) 2,233 4.0 -7.1°
